Time,TemperatureF,DewpointF,PressureIn,WindDirection,WindDirectionDegrees,WindSpeedMPH,WindSpeedGustMPH,Humidity,HourlyPrecipIn,Conditions,Clouds,dailyrainin,SoftwareType,DateUTC
2013-04-08 00:04:00,41.8,39.9,29.62,East,84,1.0,2.0,93,0.09,,,0.01,Wunderground v.1.15,2013-04-08 05:04:00,
2013-04-08 00:09:00,41.9,40.0,29.62,ESE,115,1.0,3.0,93,0.09,,,0.01,Wunderground v.1.15,2013-04-08 05:09:00,
2013-04-08 00:15:00,41.7,39.8,29.62,ENE,78,1.0,1.0,93,0.08,,,0.02,Wunderground v.1.15,2013-04-08 05:15:00,
2013-04-08 00:20:00,41.7,39.8,29.62,ESE,122,0.0,1.0,93,0.06,,,0.02,Wunderground v.1.15,2013-04-08 05:20:00,
2013-04-08 00:26:00,41.7,39.8,29.62,NE,35,1.0,2.0,93,0.06,,,0.03,Wunderground v.1.15,2013-04-08 05:26:00,
2013-04-08 00:31:00,41.7,39.8,29.62,NNE,29,1.0,2.0,93,0.05,,,0.03,Wunderground v.1.15,2013-04-08 05:31:00,
2013-04-08 00:37:00,41.8,39.9,29.61,ENE,70,1.0,2.0,93,0.04,,,0.03,Wunderground v.1.15,2013-04-08 05:37:00,
2013-04-08 00:42:00,41.9,40.0,29.61,NNE,33,1.0,2.0,93,0.00,,,0.03,Wunderground v.1.15,2013-04-08 05:42:00,
2013-04-08 00:48:00,42.0,40.1,29.61,East,81,1.0,2.0,93,0.00,,,0.03,Wunderground v.1.15,2013-04-08 05:48:00,
2013-04-08 00:53:00,41.9,40.0,29.61,North,8,0.0,1.0,93,0.00,,,0.04,Wunderground v.1.15,2013-04-08 05:53:00,
2013-04-08 00:58:00,42.0,40.1,29.61,East,92,1.0,1.0,93,0.00,,,0.04,Wunderground v.1.15,2013-04-08 05:58:00,
2013-04-08 01:03:00,42.2,40.3,29.61,NW,321,1.0,1.0,93,0.06,,,0.05,Wunderground v.1.15,2013-04-08 06:03:00,
2013-04-08 01:09:00,42.4,40.5,29.60,North,351,1.0,2.0,93,0.08,,,0.06,Wunderground v.1.15,2013-04-08 06:09:00,
2013-04-08 01:15:00,42.6,40.7,29.60,NNW,342,1.0,3.0,93,0.08,,,0.06,Wunderground v.1.15,2013-04-08 06:15:00,
2013-04-08 01:20:00,42.5,40.6,29.60,NNE,23,1.0,1.0,93,0.08,,,0.07,Wunderground v.1.15,2013-04-08 06:20:00,
2013-04-08 01:25:00,42.7,40.8,29.60,NE,39,1.0,3.0,93,0.08,,,0.08,Wunderground v.1.15,2013-04-08 06:25:00,
2013-04-08 01:30:00,42.7,40.8,29.60,East,97,1.0,1.0,93,0.08,,,0.08,Wunderground v.1.15,2013-04-08 06:30:00,
2013-04-08 01:36:00,42.7,40.8,29.60,ENE,65,1.0,2.0,93,0.07,,,0.09,Wunderground v.1.15,2013-04-08 06:36:00,
2013-04-08 01:41:00,42.6,40.7,29.60,NE,41,0.0,1.0,93,0.06,,,0.09,Wunderground v.1.15,2013-04-08 06:41:00,
2013-04-08 01:46:00,42.6,40.7,29.59,NE,44,1.0,1.0,93,0.05,,,0.10,Wunderground v.1.15,2013-04-08 06:46:00,
2013-04-08 01:52:00,42.6,40.7,29.59,NNE,19,1.0,1.0,93,0.05,,,0.10,Wunderground v.1.15,2013-04-08 06:52:00,
2013-04-08 01:57:00,42.6,40.7,29.59,ENE,64,1.0,1.0,93,0.04,,,0.10,Wunderground v.1.15,2013-04-08 06:57:00,
2013-04-08 02:02:00,42.4,40.5,29.59,ENE,64,1.0,1.0,93,0.00,,,0.10,Wunderground v.1.15,2013-04-08 07:02:00,
2013-04-08 02:07:00,42.3,40.4,29.59,NE,56,1.0,2.0,93,0.00,,,0.10,Wunderground v.1.15,2013-04-08 07:07:00,
2013-04-08 02:12:00,42.3,40.4,29.58,ENE,61,1.0,1.0,93,0.00,,,0.10,Wunderground v.1.15,2013-04-08 07:12:00,
2013-04-08 02:18:00,42.1,40.2,29.58,ENE,57,1.0,2.0,93,0.00,,,0.11,Wunderground v.1.15,2013-04-08 07:18:00,
2013-04-08 02:24:00,42.0,40.1,29.59,North,8,1.0,1.0,93,0.00,,,0.11,Wunderground v.1.15,2013-04-08 07:24:00,
2013-04-08 02:29:00,41.9,40.0,29.60,North,8,1.0,1.0,93,0.00,,,0.11,Wunderground v.1.15,2013-04-08 07:29:00,
2013-04-08 02:35:00,41.7,39.8,29.60,North,8,0.0,1.0,93,0.00,,,0.11,Wunderground v.1.15,2013-04-08 07:35:00,
2013-04-08 02:41:00,41.6,39.7,29.60,East,86,0.0,1.0,93,0.00,,,0.11,Wunderground v.1.15,2013-04-08 07:41:00,
2013-04-08 02:46:00,41.6,39.7,29.60,NNE,18,1.0,2.0,93,0.00,,,0.11,Wunderground v.1.15,2013-04-08 07:46:00,
2013-04-08 02:51:00,41.6,39.7,29.60,NNE,19,1.0,1.0,93,0.00,,,0.12,Wunderground v.1.15,2013-04-08 07:51:00,
2013-04-08 02:57:00,41.5,39.6,29.60,ENE,72,1.0,2.0,93,0.11,,,0.13,Wunderground v.1.15,2013-04-08 07:57:00,
2013-04-08 03:02:00,41.4,39.5,29.59,NE,50,2.0,2.0,93,0.10,,,0.14,Wunderground v.1.15,2013-04-08 08:02:00,
2013-04-08 03:07:00,41.3,39.4,29.59,ENE,65,2.0,2.0,93,0.10,,,0.14,Wunderground v.1.15,2013-04-08 08:07:00,
2013-04-08 03:12:00,41.3,39.4,29.59,NE,44,1.0,2.0,93,0.06,,,0.14,Wunderground v.1.15,2013-04-08 08:12:00,
2013-04-08 03:18:00,41.3,39.4,29.59,ENE,62,1.0,3.0,93,0.04,,,0.14,Wunderground v.1.15,2013-04-08 08:18:00,
2013-04-08 03:23:00,41.2,39.3,29.58,NE,41,2.0,4.0,93,0.04,,,0.15,Wunderground v.1.15,2013-04-08 08:23:00,
2013-04-08 03:29:00,41.2,39.3,29.59,NNW,346,2.0,4.0,93,0.04,,,0.15,Wunderground v.1.15,2013-04-08 08:29:00,
2013-04-08 03:34:00,41.2,39.3,29.59,NNE,18,2.0,2.0,93,0.04,,,0.15,Wunderground v.1.15,2013-04-08 08:34:00,
2013-04-08 03:40:00,41.1,39.2,29.58,East,79,2.0,2.0,93,0.00,,,0.15,Wunderground v.1.15,2013-04-08 08:40:00,
2013-04-08 03:46:00,41.1,39.2,29.57,NE,39,2.0,4.0,93,0.15,,,0.17,Wunderground v.1.15,2013-04-08 08:46:00,
2013-04-08 03:51:00,41.1,39.2,29.57,North,8,3.0,3.0,93,0.10,,,0.17,Wunderground v.1.15,2013-04-08 08:51:00,
2013-04-08 03:56:00,41.1,39.2,29.57,NE,49,2.0,3.0,93,0.08,,,0.18,Wunderground v.1.15,2013-04-08 08:56:00,
2013-04-08 04:02:00,41.1,39.2,29.58,North,6,2.0,2.0,93,0.06,,,0.18,Wunderground v.1.15,2013-04-08 09:02:00,
2013-04-08 04:07:00,41.1,39.2,29.58,NE,56,1.0,2.0,93,0.04,,,0.18,Wunderground v.1.15,2013-04-08 09:07:00,
2013-04-08 04:12:00,41.0,39.1,29.58,ENE,64,1.0,1.0,93,0.00,,,0.18,Wunderground v.1.15,2013-04-08 09:12:00,
2013-04-08 04:17:00,40.9,39.0,29.58,ENE,58,1.0,1.0,93,0.00,,,0.18,Wunderground v.1.15,2013-04-08 09:17:00,
2013-04-08 04:22:00,41.0,39.1,29.58,ENE,58,1.0,1.0,93,0.00,,,0.18,Wunderground v.1.15,2013-04-08 09:22:00,
2013-04-08 04:28:00,40.9,39.0,29.58,ENE,58,1.0,1.0,93,0.00,,,0.18,Wunderground v.1.15,2013-04-08 09:28:00,
2013-04-08 04:33:00,41.1,39.2,29.58,ENE,58,1.0,1.0,93,0.00,,,0.18,Wunderground v.1.15,2013-04-08 09:33:00,
2013-04-08 04:38:00,41.0,39.1,29.57,ENE,58,1.0,2.0,93,0.00,,,0.18,Wunderground v.1.15,2013-04-08 09:38:00,
2013-04-08 04:44:00,40.9,39.0,29.57,ENE,59,2.0,3.0,93,0.00,,,0.18,Wunderground v.1.15,2013-04-08 09:44:00,
2013-04-08 04:50:00,41.1,39.2,29.56,NE,50,2.0,2.0,93,0.00,,,0.18,Wunderground v.1.15,2013-04-08 09:50:00,
2013-04-08 04:55:00,41.1,39.2,29.56,ENE,75,2.0,3.0,93,0.00,,,0.18,Wunderground v.1.15,2013-04-08 09:55:00,
2013-04-08 05:01:00,41.0,39.1,29.55,NE,34,2.0,2.0,93,0.00,,,0.18,Wunderground v.1.15,2013-04-08 10:01:00,
2013-04-08 05:06:00,41.1,39.2,29.56,NNE,14,2.0,3.0,93,0.00,,,0.18,Wunderground v.1.15,2013-04-08 10:06:00,
2013-04-08 05:11:00,41.1,39.2,29.55,ENE,73,2.0,3.0,93,0.00,,,0.18,Wunderground v.1.15,2013-04-08 10:11:00,
2013-04-08 05:16:00,41.0,39.1,29.55,ENE,65,3.0,3.0,93,0.00,,,0.18,Wunderground v.1.15,2013-04-08 10:16:00,
2013-04-08 05:21:00,41.1,39.2,29.55,NE,36,3.0,3.0,93,0.00,,,0.18,Wunderground v.1.15,2013-04-08 10:21:00,
2013-04-08 05:27:00,41.1,39.2,29.55,ENE,72,2.0,4.0,93,0.00,,,0.18,Wunderground v.1.15,2013-04-08 10:27:00,
2013-04-08 05:33:00,41.1,39.2,29.55,ENE,68,3.0,3.0,93,0.00,,,0.18,Wunderground v.1.15,2013-04-08 10:33:00,
2013-04-08 05:39:00,41.2,39.3,29.54,ENE,66,3.0,4.0,93,0.00,,,0.18,Wunderground v.1.15,2013-04-08 10:39:00,
2013-04-08 05:45:00,41.3,39.4,29.54,NE,54,3.0,3.0,93,0.00,,,0.18,Wunderground v.1.15,2013-04-08 10:45:00,
2013-04-08 05:50:00,41.3,39.4,29.54,East,84,2.0,3.0,93,0.00,,,0.18,Wunderground v.1.15,2013-04-08 10:50:00,
2013-04-08 05:55:00,41.3,39.4,29.54,ENE,58,2.0,3.0,93,0.00,,,0.18,Wunderground v.1.15,2013-04-08 10:55:00,
2013-04-08 06:00:00,41.4,39.5,29.54,ENE,67,2.0,2.0,93,0.00,,,0.18,Wunderground v.1.15,2013-04-08 11:00:00,
2013-04-08 06:06:00,41.4,39.5,29.55,ENE,71,2.0,3.0,93,0.00,,,0.18,Wunderground v.1.15,2013-04-08 11:06:00,
2013-04-08 06:11:00,41.5,39.6,29.55,NE,51,2.0,3.0,93,0.00,,,0.18,Wunderground v.1.15,2013-04-08 11:11:00,
2013-04-08 06:16:00,41.5,39.6,29.55,NE,53,3.0,4.0,93,0.00,,,0.18,Wunderground v.1.15,2013-04-08 11:16:00,
2013-04-08 06:21:00,41.4,39.5,29.55,NE,53,2.0,3.0,93,0.00,,,0.18,Wunderground v.1.15,2013-04-08 11:21:00,
2013-04-08 06:26:00,41.4,39.5,29.55,ENE,72,2.0,3.0,93,0.00,,,0.18,Wunderground v.1.15,2013-04-08 11:26:00,
2013-04-08 06:32:00,41.3,39.4,29.55,ENE,61,2.0,4.0,93,0.00,,,0.18,Wunderground v.1.15,2013-04-08 11:32:00,
2013-04-08 06:37:00,41.2,39.3,29.56,ENE,64,3.0,4.0,93,0.00,,,0.18,Wunderground v.1.15,2013-04-08 11:37:00,
2013-04-08 06:42:00,41.1,39.2,29.56,NE,49,3.0,3.0,93,0.00,,,0.18,Wunderground v.1.15,2013-04-08 11:42:00,
2013-04-08 06:47:00,41.0,39.1,29.56,ENE,72,3.0,4.0,93,0.00,,,0.18,Wunderground v.1.15,2013-04-08 11:47:00,
2013-04-08 06:53:00,40.9,39.0,29.56,ESE,108,3.0,3.0,93,0.00,,,0.18,Wunderground v.1.15,2013-04-08 11:53:00,
2013-04-08 06:58:00,40.7,38.8,29.56,NE,34,2.0,4.0,93,0.00,,,0.18,Wunderground v.1.15,2013-04-08 11:58:00,
2013-04-08 07:03:00,40.7,38.8,29.57,ENE,75,2.0,3.0,93,0.00,,,0.18,Wunderground v.1.15,2013-04-08 12:03:00,
2013-04-08 07:09:00,40.5,38.6,29.57,East,82,2.0,3.0,93,0.00,,,0.18,Wunderground v.1.15,2013-04-08 12:09:00,
2013-04-08 07:14:00,40.4,38.5,29.57,NE,39,1.0,2.0,93,0.00,,,0.18,Wunderground v.1.15,2013-04-08 12:14:00,
2013-04-08 07:20:00,40.3,38.4,29.57,NNE,26,2.0,2.0,93,0.00,,,0.18,Wunderground v.1.15,2013-04-08 12:20:00,
2013-04-08 07:25:00,40.1,38.2,29.57,East,86,2.0,2.0,93,0.00,,,0.18,Wunderground v.1.15,2013-04-08 12:25:00,
2013-04-08 07:31:00,40.0,38.1,29.57,NE,35,2.0,4.0,93,0.00,,,0.18,Wunderground v.1.15,2013-04-08 12:31:00,
2013-04-08 07:37:00,39.9,38.0,29.58,East,86,2.0,4.0,93,0.00,,,0.18,Wunderground v.1.15,2013-04-08 12:37:00,
2013-04-08 07:42:00,39.9,38.0,29.58,NE,37,1.0,2.0,93,0.00,,,0.18,Wunderground v.1.15,2013-04-08 12:42:00,
2013-04-08 07:48:00,39.9,38.0,29.58,ENE,78,1.0,2.0,93,0.00,,,0.18,Wunderground v.1.15,2013-04-08 12:48:00,
2013-04-08 07:54:00,39.9,38.0,29.59,NE,41,1.0,2.0,93,0.00,,,0.18,Wunderground v.1.15,2013-04-08 12:54:00,
2013-04-08 07:59:00,39.8,37.9,29.59,ENE,59,1.0,2.0,93,0.00,,,0.18,Wunderground v.1.15,2013-04-08 12:59:00,
2013-04-08 08:05:00,39.8,37.9,29.59,NNE,25,1.0,2.0,93,0.00,,,0.18,Wunderground v.1.15,2013-04-08 13:05:00,
2013-04-08 08:11:00,39.8,37.9,29.59,ENE,58,1.0,1.0,93,0.00,,,0.18,Wunderground v.1.15,2013-04-08 13:11:00,
2013-04-08 08:16:00,39.8,37.9,29.60,NE,46,1.0,3.0,93,0.00,,,0.18,Wunderground v.1.15,2013-04-08 13:16:00,
2013-04-08 08:22:00,39.8,37.9,29.60,NE,53,0.0,1.0,93,0.00,,,0.18,Wunderground v.1.15,2013-04-08 13:22:00,
2013-04-08 08:27:00,39.9,38.0,29.60,NNW,345,0.0,1.0,93,0.00,,,0.18,Wunderground v.1.15,2013-04-08 13:27:00,
2013-04-08 08:32:00,39.9,38.0,29.60,NNE,32,0.0,1.0,93,0.00,,,0.18,Wunderground v.1.15,2013-04-08 13:32:00,
2013-04-08 08:37:00,39.9,38.0,29.60,NE,51,0.0,1.0,93,0.00,,,0.18,Wunderground v.1.15,2013-04-08 13:37:00,
2013-04-08 08:43:00,39.9,38.0,29.60,ENE,65,0.0,1.0,93,0.00,,,0.18,Wunderground v.1.15,2013-04-08 13:43:00,
2013-04-08 08:48:00,40.0,38.1,29.60,ENE,57,1.0,1.0,93,0.00,,,0.18,Wunderground v.1.15,2013-04-08 13:48:00,
2013-04-08 08:53:00,39.9,38.0,29.60,East,80,1.0,2.0,93,0.00,,,0.18,Wunderground v.1.15,2013-04-08 13:53:00,
2013-04-08 08:58:00,40.0,38.1,29.60,ENE,65,1.0,2.0,93,0.00,,,0.18,Wunderground v.1.15,2013-04-08 13:58:00,
2013-04-08 09:04:00,40.1,38.2,29.60,ENE,62,1.0,1.0,93,0.00,,,0.18,Wunderground v.1.15,2013-04-08 14:04:00,
2013-04-08 09:09:00,40.2,38.3,29.60,ENE,63,1.0,1.0,93,0.00,,,0.18,Wunderground v.1.15,2013-04-08 14:09:00,
2013-04-08 09:15:00,40.3,38.4,29.61,East,101,1.0,2.0,93,0.00,,,0.18,Wunderground v.1.15,2013-04-08 14:15:00,
2013-04-08 09:21:00,40.4,38.5,29.61,ENE,68,1.0,1.0,93,0.00,,,0.18,Wunderground v.1.15,2013-04-08 14:21:00,
2013-04-08 09:26:00,40.6,38.7,29.60,East,84,1.0,2.0,93,0.00,,,0.18,Wunderground v.1.15,2013-04-08 14:26:00,
2013-04-08 09:31:00,40.7,38.8,29.61,North,354,1.0,2.0,93,0.00,,,0.18,Wunderground v.1.15,2013-04-08 14:31:00,
2013-04-08 09:36:00,40.8,38.9,29.60,ENE,75,2.0,2.0,93,0.00,,,0.18,Wunderground v.1.15,2013-04-08 14:36:00,
2013-04-08 09:42:00,40.9,39.0,29.60,NE,46,2.0,2.0,93,0.00,,,0.18,Wunderground v.1.15,2013-04-08 14:42:00,
2013-04-08 09:47:00,41.1,39.2,29.61,ENE,61,2.0,2.0,93,0.00,,,0.18,Wunderground v.1.15,2013-04-08 14:47:00,
2013-04-08 09:52:00,41.2,39.6,29.61,NE,53,1.0,2.0,94,0.00,,,0.18,Wunderground v.1.15,2013-04-08 14:52:00,
2013-04-08 09:58:00,41.2,39.6,29.61,ENE,77,1.0,2.0,94,0.00,,,0.18,Wunderground v.1.15,2013-04-08 14:58:00,
2013-04-08 10:04:00,41.4,39.8,29.61,NE,43,1.0,1.0,94,0.00,,,0.18,Wunderground v.1.15,2013-04-08 15:04:00,
2013-04-08 10:09:00,41.6,40.0,29.62,NNE,12,1.0,2.0,94,0.00,,,0.18,Wunderground v.1.15,2013-04-08 15:09:00,
2013-04-08 10:15:00,41.7,40.1,29.62,North,354,1.0,1.0,94,0.00,,,0.18,Wunderground v.1.15,2013-04-08 15:15:00,
2013-04-08 10:20:00,42.0,40.4,29.62,East,81,1.0,2.0,94,0.00,,,0.18,Wunderground v.1.15,2013-04-08 15:20:00,
2013-04-08 10:25:00,42.2,40.6,29.62,ENE,65,1.0,2.0,94,0.00,,,0.18,Wunderground v.1.15,2013-04-08 15:25:00,
2013-04-08 10:31:00,42.4,40.8,29.63,NE,44,1.0,1.0,94,0.00,,,0.18,Wunderground v.1.15,2013-04-08 15:31:00,
2013-04-08 10:36:00,42.4,40.8,29.63,NE,55,1.0,1.0,94,0.00,,,0.18,Wunderground v.1.15,2013-04-08 15:36:00,
2013-04-08 10:42:00,42.5,40.9,29.63,NNE,16,1.0,3.0,94,0.00,,,0.18,Wunderground v.1.15,2013-04-08 15:42:00,
2013-04-08 10:47:00,42.6,41.0,29.63,ENE,62,1.0,3.0,94,0.00,,,0.18,Wunderground v.1.15,2013-04-08 15:47:00,
2013-04-08 10:52:00,42.7,41.1,29.63,ENE,65,1.0,2.0,94,0.00,,,0.18,Wunderground v.1.15,2013-04-08 15:52:00,
2013-04-08 10:57:00,42.8,41.2,29.63,NNE,17,1.0,2.0,94,0.00,,,0.18,Wunderground v.1.15,2013-04-08 15:57:00,
2013-04-08 11:03:00,42.5,40.6,29.64,NNE,14,2.0,2.0,93,0.00,,,0.18,Wunderground v.1.15,2013-04-08 16:03:00,
2013-04-08 11:08:00,42.6,40.7,29.63,ENE,72,2.0,3.0,93,0.00,,,0.18,Wunderground v.1.15,2013-04-08 16:08:00,
2013-04-08 11:14:00,42.6,40.7,29.63,NE,56,2.0,2.0,93,0.00,,,0.18,Wunderground v.1.15,2013-04-08 16:14:00,
2013-04-08 11:20:00,43.0,41.4,29.63,ENE,74,2.0,2.0,94,0.00,,,0.18,Wunderground v.1.15,2013-04-08 16:20:00,
2013-04-08 11:25:00,43.3,41.7,29.63,NE,49,2.0,3.0,94,0.00,,,0.18,Wunderground v.1.15,2013-04-08 16:25:00,
2013-04-08 11:30:00,43.4,41.5,29.64,NNW,342,2.0,2.0,93,0.00,,,0.18,Wunderground v.1.15,2013-04-08 16:30:00,
2013-04-08 11:36:00,43.5,41.6,29.64,ENE,66,2.0,2.0,93,0.00,,,0.18,Wunderground v.1.15,2013-04-08 16:36:00,
2013-04-08 11:42:00,43.5,41.6,29.64,NE,51,2.0,2.0,93,0.00,,,0.18,Wunderground v.1.15,2013-04-08 16:42:00,
2013-04-08 11:47:00,43.5,41.6,29.64,NNE,13,2.0,3.0,93,0.00,,,0.18,Wunderground v.1.15,2013-04-08 16:47:00,
2013-04-08 11:53:00,43.9,42.0,29.64,NNE,30,2.0,2.0,93,0.00,,,0.18,Wunderground v.1.15,2013-04-08 16:53:00,
2013-04-08 11:58:00,44.1,41.9,29.65,NNE,14,2.0,3.0,92,0.00,,,0.18,Wunderground v.1.15,2013-04-08 16:58:00,
2013-04-08 12:05:00,44.6,42.1,29.65,NE,47,1.0,2.0,91,0.00,,,0.18,Wunderground v.1.15,2013-04-08 17:05:00,
2013-04-08 12:10:00,44.8,42.3,29.65,NE,44,1.0,1.0,91,0.00,,,0.18,Wunderground v.1.15,2013-04-08 17:10:00,
2013-04-08 12:15:00,45.0,42.5,29.65,NNE,13,1.0,3.0,91,0.00,,,0.18,Wunderground v.1.15,2013-04-08 17:15:00,
2013-04-08 12:20:00,45.2,42.7,29.65,ENE,73,1.0,1.0,91,0.00,,,0.18,Wunderground v.1.15,2013-04-08 17:20:00,
2013-04-08 12:26:00,45.4,42.9,29.65,NNE,19,1.0,1.0,91,0.00,,,0.18,Wunderground v.1.15,2013-04-08 17:26:00,
2013-04-08 12:32:00,45.7,42.9,29.65,ENE,66,1.0,2.0,90,0.00,,,0.18,Wunderground v.1.15,2013-04-08 17:32:00,
2013-04-08 12:37:00,45.8,43.0,29.66,NNE,26,1.0,2.0,90,0.00,,,0.18,Wunderground v.1.15,2013-04-08 17:37:00,
2013-04-08 12:42:00,45.9,42.8,29.66,ENE,78,1.0,2.0,89,0.00,,,0.18,Wunderground v.1.15,2013-04-08 17:42:00,
2013-04-08 12:48:00,45.9,42.8,29.66,ENE,75,1.0,2.0,89,0.00,,,0.18,Wunderground v.1.15,2013-04-08 17:48:00,
2013-04-08 12:53:00,45.8,42.7,29.66,North,11,1.0,2.0,89,0.00,,,0.18,Wunderground v.1.15,2013-04-08 17:53:00,
2013-04-08 12:58:00,45.9,43.1,29.66,NE,55,2.0,2.0,90,0.00,,,0.18,Wunderground v.1.15,2013-04-08 17:58:00,
2013-04-08 13:04:00,46.0,42.9,29.67,NE,51,1.0,3.0,89,0.00,,,0.18,Wunderground v.1.15,2013-04-08 18:04:00,
2013-04-08 13:09:00,45.9,42.8,29.67,East,79,1.0,3.0,89,0.00,,,0.18,Wunderground v.1.15,2013-04-08 18:09:00,
2013-04-08 13:15:00,46.0,42.9,29.67,NNW,335,1.0,2.0,89,0.00,,,0.18,Wunderground v.1.15,2013-04-08 18:15:00,
2013-04-08 13:20:00,46.1,42.7,29.67,ENE,78,1.0,1.0,88,0.00,,,0.18,Wunderground v.1.15,2013-04-08 18:20:00,
2013-04-08 13:25:00,46.3,42.9,29.67,ENE,70,1.0,3.0,88,0.00,,,0.18,Wunderground v.1.15,2013-04-08 18:25:00,
2013-04-08 13:31:00,46.6,43.5,29.67,NNE,25,1.0,1.0,89,0.00,,,0.18,Wunderground v.1.15,2013-04-08 18:31:00,
2013-04-08 13:36:00,46.9,43.5,29.67,NNW,346,1.0,2.0,88,0.00,,,0.18,Wunderground v.1.15,2013-04-08 18:36:00,
2013-04-08 13:42:00,47.0,43.3,29.68,NNE,19,1.0,2.0,87,0.00,,,0.18,Wunderground v.1.15,2013-04-08 18:42:00,
2013-04-08 13:47:00,47.0,43.3,29.68,NNW,344,1.0,3.0,87,0.00,,,0.18,Wunderground v.1.15,2013-04-08 18:47:00,
2013-04-08 13:52:00,47.1,43.4,29.68,NE,36,1.0,2.0,87,0.00,,,0.18,Wunderground v.1.15,2013-04-08 18:52:00,
2013-04-08 13:58:00,47.1,43.7,29.67,ENE,67,2.0,2.0,88,0.00,,,0.18,Wunderground v.1.15,2013-04-08 18:58:00,
2013-04-08 14:03:00,47.1,43.4,29.67,ENE,70,2.0,3.0,87,0.00,,,0.18,Wunderground v.1.15,2013-04-08 19:03:00,
2013-04-08 14:08:00,47.1,43.4,29.67,NNE,20,2.0,4.0,87,0.00,,,0.18,Wunderground v.1.15,2013-04-08 19:08:00,
2013-04-08 14:13:00,47.2,43.5,29.68,North,360,1.0,2.0,87,0.00,,,0.18,Wunderground v.1.15,2013-04-08 19:13:00,
2013-04-08 14:18:00,46.9,43.2,29.68,NNE,20,1.0,4.0,87,0.00,,,0.18,Wunderground v.1.15,2013-04-08 19:18:00,
2013-04-08 14:23:00,46.7,43.0,29.68,NNE,15,2.0,2.0,87,0.00,,,0.18,Wunderground v.1.15,2013-04-08 19:23:00,
2013-04-08 14:28:00,46.7,43.3,29.68,NE,49,1.0,2.0,88,0.00,,,0.18,Wunderground v.1.15,2013-04-08 19:28:00,
2013-04-08 14:33:00,46.7,43.3,29.69,North,9,1.0,3.0,88,0.00,,,0.18,Wunderground v.1.15,2013-04-08 19:33:00,
2013-04-08 14:39:00,46.6,43.2,29.69,North,4,1.0,3.0,88,0.00,,,0.18,Wunderground v.1.15,2013-04-08 19:39:00,
2013-04-08 14:45:00,46.4,43.0,29.68,ENE,62,1.0,2.0,88,0.00,,,0.18,Wunderground v.1.15,2013-04-08 19:45:00,
2013-04-08 14:50:00,46.3,42.9,29.68,NNE,16,1.0,4.0,88,0.00,,,0.18,Wunderground v.1.15,2013-04-08 19:50:00,
2013-04-08 14:56:00,46.1,43.0,29.67,NE,41,2.0,4.0,89,0.00,,,0.18,Wunderground v.1.15,2013-04-08 19:56:00,
2013-04-08 15:01:00,45.9,42.8,29.67,North,354,2.0,3.0,89,0.00,,,0.18,Wunderground v.1.15,2013-04-08 20:01:00,
2013-04-08 15:06:00,45.9,42.8,29.68,ENE,68,2.0,3.0,89,0.00,,,0.18,Wunderground v.1.15,2013-04-08 20:06:00,
2013-04-08 15:12:00,46.1,43.3,29.67,ENE,72,2.0,4.0,90,0.00,,,0.18,Wunderground v.1.15,2013-04-08 20:12:00,
2013-04-08 15:17:00,46.4,43.6,29.67,North,359,3.0,5.0,90,0.00,,,0.18,Wunderground v.1.15,2013-04-08 20:17:00,
2013-04-08 15:22:00,46.5,43.4,29.68,ENE,57,3.0,4.0,89,0.00,,,0.18,Wunderground v.1.15,2013-04-08 20:22:00,
2013-04-08 15:27:00,46.5,43.1,29.68,NE,51,3.0,6.0,88,0.00,,,0.18,Wunderground v.1.15,2013-04-08 20:27:00,
2013-04-08 15:33:00,46.6,43.5,29.68,ENE,68,3.0,4.0,89,0.00,,,0.18,Wunderground v.1.15,2013-04-08 20:33:00,
2013-04-08 15:39:00,46.6,43.2,29.69,North,351,3.0,4.0,88,0.00,,,0.18,Wunderground v.1.15,2013-04-08 20:39:00,
2013-04-08 15:44:00,46.4,43.0,29.69,East,84,2.0,3.0,88,0.00,,,0.18,Wunderground v.1.15,2013-04-08 20:44:00,
2013-04-08 15:49:00,46.5,43.1,29.68,ENE,65,2.0,3.0,88,0.00,,,0.18,Wunderground v.1.15,2013-04-08 20:49:00,
2013-04-08 15:55:00,46.9,43.5,29.68,North,3,2.0,4.0,88,0.00,,,0.18,Wunderground v.1.15,2013-04-08 20:55:00,
2013-04-08 16:01:00,47.3,43.3,29.68,ENE,57,3.0,3.0,86,0.00,,,0.18,Wunderground v.1.15,2013-04-08 21:01:00,
2013-04-08 16:06:00,47.2,43.2,29.68,ENE,70,3.0,4.0,86,0.00,,,0.18,Wunderground v.1.15,2013-04-08 21:06:00,
2013-04-08 16:11:00,47.2,43.2,29.68,ENE,70,3.0,3.0,86,0.00,,,0.18,Wunderground v.1.15,2013-04-08 21:11:00,
2013-04-08 16:17:00,47.1,43.1,29.69,ENE,74,2.0,3.0,86,0.00,,,0.18,Wunderground v.1.15,2013-04-08 21:17:00,
2013-04-08 16:22:00,47.0,43.0,29.69,NE,56,3.0,3.0,86,0.00,,,0.18,Wunderground v.1.15,2013-04-08 21:22:00,
2013-04-08 16:27:00,47.0,43.3,29.70,NNE,19,2.0,3.0,87,0.00,,,0.18,Wunderground v.1.15,2013-04-08 21:27:00,
2013-04-08 16:32:00,46.9,42.9,29.70,ENE,66,2.0,4.0,86,0.00,,,0.18,Wunderground v.1.15,2013-04-08 21:32:00,
2013-04-08 16:38:00,46.7,42.7,29.71,North,8,2.0,4.0,86,0.00,,,0.18,Wunderground v.1.15,2013-04-08 21:38:00,
2013-04-08 16:43:00,46.5,42.5,29.72,North,6,2.0,2.0,86,0.00,,,0.18,Wunderground v.1.15,2013-04-08 21:43:00,
2013-04-08 16:48:00,46.4,42.4,29.72,East,79,2.0,3.0,86,0.00,,,0.18,Wunderground v.1.15,2013-04-08 21:48:00,
2013-04-08 16:53:00,46.3,42.6,29.72,NNE,26,1.0,3.0,87,0.00,,,0.18,Wunderground v.1.15,2013-04-08 21:53:00,
2013-04-08 16:59:00,46.1,42.4,29.73,North,7,2.0,3.0,87,0.00,,,0.18,Wunderground v.1.15,2013-04-08 21:59:00,
2013-04-08 17:04:00,46.0,42.6,29.73,NNE,16,2.0,4.0,88,0.00,,,0.18,Wunderground v.1.15,2013-04-08 22:04:00,
2013-04-08 17:09:00,45.9,42.5,29.73,ENE,77,2.0,4.0,88,0.00,,,0.18,Wunderground v.1.15,2013-04-08 22:09:00,
2013-04-08 17:15:00,45.9,42.5,29.74,North,11,2.0,3.0,88,0.00,,,0.18,Wunderground v.1.15,2013-04-08 22:15:00,
2013-04-08 17:21:00,45.8,42.2,29.74,NNE,19,2.0,3.0,87,0.00,,,0.18,Wunderground v.1.15,2013-04-08 22:21:00,
2013-04-08 17:26:00,45.9,42.5,29.74,NNE,20,2.0,3.0,88,0.00,,,0.18,Wunderground v.1.15,2013-04-08 22:26:00,
2013-04-08 17:31:00,46.1,42.7,29.73,NE,43,2.0,4.0,88,0.00,,,0.18,Wunderground v.1.15,2013-04-08 22:31:00,
2013-04-08 17:37:00,46.5,43.1,29.73,NNE,33,2.0,4.0,88,0.00,,,0.18,Wunderground v.1.15,2013-04-08 22:37:00,
2013-04-08 17:42:00,46.7,43.0,29.73,NNE,13,2.0,4.0,87,0.00,,,0.18,Wunderground v.1.15,2013-04-08 22:42:00,
2013-04-08 17:47:00,46.6,42.6,29.73,NE,53,3.0,4.0,86,0.00,,,0.18,Wunderground v.1.15,2013-04-08 22:47:00,
2013-04-08 17:52:00,46.5,42.5,29.74,NE,56,3.0,3.0,86,0.00,,,0.18,Wunderground v.1.15,2013-04-08 22:52:00,
2013-04-08 17:58:00,46.2,42.2,29.75,ENE,61,2.0,3.0,86,0.00,,,0.18,Wunderground v.1.15,2013-04-08 22:58:00,
2013-04-08 18:03:00,46.1,42.1,29.75,NNE,21,2.0,2.0,86,0.00,,,0.18,Wunderground v.1.15,2013-04-08 23:03:00,
2013-04-08 18:08:00,46.0,42.0,29.76,NE,56,2.0,4.0,86,0.00,,,0.18,Wunderground v.1.15,2013-04-08 23:08:00,
2013-04-08 18:13:00,45.7,41.8,29.76,NNE,20,3.0,4.0,86,0.00,,,0.18,Wunderground v.1.15,2013-04-08 23:13:00,
2013-04-08 18:19:00,45.5,41.9,29.77,ENE,74,3.0,5.0,87,0.00,,,0.18,Wunderground v.1.15,2013-04-08 23:19:00,
2013-04-08 18:24:00,45.3,41.7,29.77,NE,53,3.0,4.0,87,0.00,,,0.18,Wunderground v.1.15,2013-04-08 23:24:00,
2013-04-08 18:30:00,45.1,41.5,29.77,North,8,3.0,3.0,87,0.00,,,0.18,Wunderground v.1.15,2013-04-08 23:30:00,
2013-04-08 18:36:00,45.0,41.7,29.78,NNE,26,3.0,5.0,88,0.00,,,0.18,Wunderground v.1.15,2013-04-08 23:36:00,
2013-04-08 18:41:00,44.9,41.6,29.79,North,8,2.0,3.0,88,0.00,,,0.18,Wunderground v.1.15,2013-04-08 23:41:00,
2013-04-08 18:46:00,44.8,41.5,29.79,NNE,15,1.0,3.0,88,0.00,,,0.18,Wunderground v.1.15,2013-04-08 23:46:00,
2013-04-08 18:51:00,44.7,41.4,29.79,NNE,33,1.0,4.0,88,0.00,,,0.18,Wunderground v.1.15,2013-04-08 23:51:00,
2013-04-08 18:57:00,44.6,41.3,29.80,North,5,1.0,4.0,88,0.00,,,0.18,Wunderground v.1.15,2013-04-08 23:57:00,
2013-04-08 19:03:00,44.5,41.2,29.80,NNE,13,2.0,3.0,88,0.00,,,0.18,Wunderground v.1.15,2013-04-09 00:03:00,
2013-04-08 19:08:00,44.4,41.4,29.80,NNE,20,2.0,3.0,89,0.00,,,0.18,Wunderground v.1.15,2013-04-09 00:08:00,
2013-04-08 19:13:00,44.3,41.3,29.80,NE,54,2.0,2.0,89,0.00,,,0.18,Wunderground v.1.15,2013-04-09 00:13:00,
2013-04-08 19:18:00,44.1,41.1,29.81,NNE,33,2.0,2.0,89,0.00,,,0.18,Wunderground v.1.15,2013-04-09 00:18:00,
2013-04-08 19:23:00,44.1,41.1,29.81,ENE,64,1.0,2.0,89,0.00,,,0.18,Wunderground v.1.15,2013-04-09 00:23:00,
2013-04-08 19:29:00,43.9,41.2,29.81,NNE,19,2.0,3.0,90,0.00,,,0.18,Wunderground v.1.15,2013-04-09 00:29:00,
2013-04-08 19:34:00,43.8,41.1,29.82,East,82,2.0,2.0,90,0.00,,,0.18,Wunderground v.1.15,2013-04-09 00:34:00,
2013-04-08 19:40:00,43.7,41.0,29.82,NNE,15,2.0,2.0,90,0.00,,,0.18,Wunderground v.1.15,2013-04-09 00:40:00,
2013-04-08 19:45:00,43.6,40.9,29.82,NNE,22,1.0,2.0,90,0.00,,,0.18,Wunderground v.1.15,2013-04-09 00:45:00,
2013-04-08 19:50:00,43.5,40.8,29.82,NNE,15,2.0,2.0,90,0.00,,,0.18,Wunderground v.1.15,2013-04-09 00:50:00,
2013-04-08 19:55:00,43.5,40.8,29.83,NNW,348,2.0,2.0,90,0.00,,,0.18,Wunderground v.1.15,2013-04-09 00:55:00,
2013-04-08 20:01:00,43.3,40.6,29.83,NNE,28,2.0,2.0,90,0.00,,,0.18,Wunderground v.1.15,2013-04-09 01:01:00,
2013-04-08 20:06:00,43.2,40.8,29.83,NNE,23,2.0,5.0,91,0.00,,,0.18,Wunderground v.1.15,2013-04-09 01:06:00,
2013-04-08 20:11:00,42.9,40.5,29.83,North,358,3.0,3.0,91,0.00,,,0.18,Wunderground v.1.15,2013-04-09 01:11:00,
2013-04-08 20:16:00,42.7,40.3,29.83,North,8,2.0,4.0,91,0.00,,,0.18,Wunderground v.1.15,2013-04-09 01:16:00,
2013-04-08 20:21:00,42.5,40.3,29.83,NE,35,3.0,3.0,92,0.00,,,0.18,Wunderground v.1.15,2013-04-09 01:21:00,
2013-04-08 20:26:00,42.3,40.1,29.83,North,6,3.0,4.0,92,0.00,,,0.18,Wunderground v.1.15,2013-04-09 01:26:00,
2013-04-08 20:32:00,42.2,40.0,29.84,NE,51,3.0,5.0,92,0.00,,,0.18,Wunderground v.1.15,2013-04-09 01:32:00,
2013-04-08 20:37:00,42.1,39.9,29.84,NNE,16,3.0,5.0,92,0.00,,,0.18,Wunderground v.1.15,2013-04-09 01:37:00,
2013-04-08 20:43:00,42.0,39.8,29.84,NNW,342,3.0,4.0,92,0.00,,,0.18,Wunderground v.1.15,2013-04-09 01:43:00,
2013-04-08 20:48:00,41.9,39.7,29.83,North,4,4.0,5.0,92,0.00,,,0.18,Wunderground v.1.15,2013-04-09 01:48:00,
2013-04-08 20:53:00,41.6,39.4,29.83,ENE,64,4.0,6.0,92,0.00,,,0.18,Wunderground v.1.15,2013-04-09 01:53:00,
2013-04-08 20:59:00,41.2,39.1,29.84,North,349,4.0,6.0,92,0.00,,,0.18,Wunderground v.1.15,2013-04-09 01:59:00,
2013-04-08 21:04:00,41.0,39.1,29.84,NNE,13,5.0,6.0,93,0.00,,,0.18,Wunderground v.1.15,2013-04-09 02:04:00,
2013-04-08 21:09:00,40.8,38.9,29.84,NNE,21,4.0,6.0,93,0.00,,,0.18,Wunderground v.1.15,2013-04-09 02:09:00,
2013-04-08 21:15:00,40.7,38.8,29.85,NE,43,4.0,7.0,93,0.00,,,0.18,Wunderground v.1.15,2013-04-09 02:15:00,
2013-04-08 21:20:00,40.6,38.7,29.86,NE,43,3.0,5.0,93,0.00,,,0.18,Wunderground v.1.15,2013-04-09 02:20:00,
2013-04-08 21:25:00,40.5,38.6,29.86,ENE,75,3.0,5.0,93,0.00,,,0.18,Wunderground v.1.15,2013-04-09 02:25:00,
2013-04-08 21:30:00,40.5,38.6,29.86,NNE,19,3.0,4.0,93,0.00,,,0.18,Wunderground v.1.15,2013-04-09 02:30:00,
2013-04-08 21:36:00,40.5,38.6,29.86,NNE,20,4.0,5.0,93,0.00,,,0.18,Wunderground v.1.15,2013-04-09 02:36:00,
2013-04-08 21:42:00,40.5,38.6,29.87,NE,43,4.0,4.0,93,0.00,,,0.18,Wunderground v.1.15,2013-04-09 02:42:00,
2013-04-08 21:47:00,40.5,38.6,29.87,NE,44,3.0,4.0,93,0.00,,,0.18,Wunderground v.1.15,2013-04-09 02:47:00,
2013-04-08 21:53:00,40.5,38.6,29.87,NNE,30,3.0,4.0,93,0.00,,,0.18,Wunderground v.1.15,2013-04-09 02:53:00,
2013-04-08 21:58:00,40.5,38.6,29.87,NNE,20,3.0,4.0,93,0.00,,,0.18,Wunderground v.1.15,2013-04-09 02:58:00,
2013-04-08 22:03:00,40.5,38.6,29.87,NE,53,3.0,5.0,93,0.00,,,0.18,Wunderground v.1.15,2013-04-09 03:03:00,
2013-04-08 22:08:00,40.4,38.5,29.87,ENE,61,3.0,5.0,93,0.00,,,0.18,Wunderground v.1.15,2013-04-09 03:08:00,
2013-04-08 22:13:00,40.4,38.5,29.87,ENE,70,3.0,4.0,93,0.00,,,0.18,Wunderground v.1.15,2013-04-09 03:13:00,
2013-04-08 22:19:00,40.4,38.5,29.88,NE,42,3.0,5.0,93,0.00,,,0.18,Wunderground v.1.15,2013-04-09 03:19:00,
2013-04-08 22:24:00,40.4,38.5,29.88,ENE,58,4.0,6.0,93,0.00,,,0.18,Wunderground v.1.15,2013-04-09 03:24:00,
2013-04-08 22:29:00,40.4,38.5,29.88,ENE,60,4.0,6.0,93,0.00,,,0.18,Wunderground v.1.15,2013-04-09 03:29:00,
2013-04-08 22:34:00,40.3,38.4,29.89,NE,44,3.0,4.0,93,0.00,,,0.18,Wunderground v.1.15,2013-04-09 03:34:00,
2013-04-08 22:39:00,40.3,38.4,29.89,NE,39,3.0,4.0,93,0.00,,,0.18,Wunderground v.1.15,2013-04-09 03:39:00,
2013-04-08 22:45:00,40.1,38.2,29.89,NNE,22,3.0,4.0,93,0.00,,,0.18,Wunderground v.1.15,2013-04-09 03:45:00,
2013-04-08 22:50:00,40.1,38.2,29.89,East,91,3.0,3.0,93,0.00,,,0.18,Wunderground v.1.15,2013-04-09 03:50:00,
2013-04-08 22:57:00,40.0,38.1,29.89,ENE,68,2.0,4.0,93,0.00,,,0.18,Wunderground v.1.15,2013-04-09 03:57:00,
2013-04-08 23:00:00,40.0,38.1,29.89,NE,36,2.0,2.0,93,0.00,,,0.18,Wunderground v.1.15,2013-04-09 04:00:00,
2013-04-08 23:01:00,40.0,38.1,29.89,NE,41,2.0,2.0,93,0.00,,,0.18,Wunderground v.1.15,2013-04-09 04:01:00,
2013-04-08 23:05:00,39.9,38.0,29.88,NE,46,2.0,4.0,93,0.00,,,0.18,Wunderground v.1.15,2013-04-09 04:05:00,
2013-04-08 23:08:00,39.9,38.0,29.88,ENE,59,2.0,4.0,93,0.00,,,0.18,Wunderground v.1.15,2013-04-09 04:08:00,
2013-04-08 23:13:00,39.9,38.0,29.89,NE,48,3.0,3.0,93,0.00,,,0.18,Wunderground v.1.15,2013-04-09 04:13:00,
2013-04-08 23:19:00,39.9,38.0,29.89,NE,39,3.0,3.0,93,0.00,,,0.18,Wunderground v.1.15,2013-04-09 04:19:00,
2013-04-08 23:24:00,39.9,38.0,29.89,ENE,72,2.0,3.0,93,0.00,,,0.18,Wunderground v.1.15,2013-04-09 04:24:00,
2013-04-08 23:29:00,39.9,38.0,29.89,NE,43,2.0,3.0,93,0.00,,,0.18,Wunderground v.1.15,2013-04-09 04:29:00,
2013-04-08 23:35:00,39.9,38.0,29.90,ENE,57,2.0,3.0,93,0.00,,,0.18,Wunderground v.1.15,2013-04-09 04:35:00,
2013-04-08 23:40:00,39.9,38.0,29.89,ENE,65,2.0,2.0,93,0.00,,,0.18,Wunderground v.1.15,2013-04-09 04:40:00,
2013-04-08 23:45:00,39.9,38.0,29.89,NE,39,2.0,3.0,93,0.00,,,0.18,Wunderground v.1.15,2013-04-09 04:45:00,
2013-04-08 23:51:00,39.9,38.0,29.89,NE,42,3.0,4.0,93,0.00,,,0.18,Wunderground v.1.15,2013-04-09 04:51:00,
2013-04-08 23:56:00,39.9,38.0,29.89,NE,53,3.0,4.0,93,0.00,,,0.18,Wunderground v.1.15,2013-04-09 04:56:00,